| time (UTC) | temp F | wind direction | speed MPH | gust MPH | rain 1hr in | rain 24hr in | rain mn in | humidity % | barometer mb |
| 20260904011017 | 72 | 116 | 1.0 | 3.0 | 0.00 | 0.05 | 0.05 | 91 | 1012.8 |
| 20260904010517 | 72 | 119 | 2.0 | 4.0 | 0.00 | 0.05 | 0.05 | 91 | 1012.9 |
| 20260904010017 | 72 | 118 | 2.0 | 4.0 | 0.00 | 0.05 | 0.05 | 91 | 1012.8 |
| 20260904005517 | 72 | 119 | 1.0 | 4.0 | 0.00 | 0.05 | 0.05 | 91 | 1012.7 |
| 20260904005016 | 72 | 0.0 | 0.0 | 0.00 | 0.05 | 0.05 | 91 | 1012.8 | |
| 20260904004516 | 73 | 0.0 | 0.0 | 0.00 | 0.05 | 0.05 | 90 | 1012.9 | |
| 20260904004016 | 73 | 0.0 | 1.0 | 0.00 | 0.05 | 0.05 | 90 | 1012.7 | |
| 20260904003516 | 73 | 118 | 0.0 | 1.0 | 0.00 | 0.05 | 0.05 | 90 | 1012.7 |
| 20260904003016 | 73 | 0.0 | 2.0 | 0.00 | 0.05 | 0.05 | 90 | 1012.6 | |
| 20260904002516 | 73 | 77 | 0.0 | 2.0 | 0.00 | 0.05 | 0.05 | 90 | 1012.6 |
| 20260904002017 | 73 | 91 | 1.0 | 3.0 | 0.00 | 0.05 | 0.05 | 89 | 1012.5 |
| 20260904001516 | 74 | 108 | 2.0 | 4.0 | 0.00 | 0.05 | 0.05 | 89 | 1012.3 |
| 20260904001016 | 74 | 107 | 2.0 | 4.0 | 0.00 | 0.05 | 0.05 | 89 | 1012.2 |
| 20260904000516 | 74 | 126 | 2.0 | 5.0 | 0.00 | 0.05 | 0.05 | 89 | 1012.2 |
| 20260904000016 | 74 | 126 | 3.0 | 5.0 | 0.00 | 0.05 | 0.05 | 89 | 1012.2 |
| 20260903235516 | 74 | 115 | 3.0 | 4.0 | 0.00 | 0.05 | 0.05 | 89 | 1012.3 |
| 20260903235016 | 74 | 118 | 2.0 | 7.0 | 0.00 | 0.05 | 0.05 | 89 | 1012.2 |
| 20260903234517 | 74 | 129 | 2.0 | 7.0 | 0.00 | 0.05 | 0.05 | 89 | 1012.2 |
| 20260903234018 | 74 | 129 | 3.0 | 7.0 | 0.00 | 0.05 | 0.05 | 89 | 1012.1 |
| 20260903233558 | 75 | 111 | 3.0 | 7.0 | 0.00 | 0.05 | 0.05 | 88 | 1011.9 |
| 20260903233016 | 75 | 110 | 4.0 | 7.0 | 0.00 | 0.05 | 0.05 | 88 | 1012.0 |
| 20260903232516 | 75 | 110 | 4.0 | 7.0 | 0.00 | 0.05 | 0.05 | 88 | 1012.1 |
| 20260903232016 | 75 | 114 | 5.0 | 7.0 | 0.00 | 0.05 | 0.05 | 88 | 1012.0 |
| 20260903231516 | 75 | 115 | 3.0 | 6.0 | 0.00 | 0.05 | 0.05 | 88 | 1012.0 |
| 20260903231016 | 75 | 134 | 2.0 | 7.0 | 0.00 | 0.05 | 0.05 | 88 | 1012.0 |
| 20260903230516 | 75 | 130 | 4.0 | 7.0 | 0.00 | 0.05 | 0.05 | 87 | 1012.1 |
| 20260903230017 | 75 | 124 | 3.0 | 8.0 | 0.00 | 0.05 | 0.05 | 86 | 1012.0 |
| 20260903225516 | 76 | 126 | 4.0 | 9.0 | 0.00 | 0.05 | 0.05 | 86 | 1012.0 |
| 20260903225016 | 76 | 121 | 6.0 | 11.0 | 0.00 | 0.05 | 0.05 | 86 | 1011.9 |
| 20260903224517 | 76 | 122 | 7.0 | 11.0 | 0.00 | 0.05 | 0.05 | 85 | 1011.9 |
| 20260903224016 | 76 | 117 | 8.0 | 11.0 | 0.01 | 0.05 | 0.05 | 85 | 1012.0 |
| 20260903223536 | 76 | 113 | 7.0 | 9.0 | 0.01 | 0.05 | 0.05 | 85 | 1012.1 |
| 20260903223016 | 76 | 112 | 4.0 | 8.0 | 0.01 | 0.05 | 0.05 | 86 | 1012.0 |
| 20260903222516 | 76 | 137 | 3.0 | 8.0 | 0.01 | 0.05 | 0.05 | 87 | 1011.9 |
| 20260903222036 | 76 | 140 | 3.0 | 6.0 | 0.01 | 0.05 | 0.05 | 87 | 1012.0 |
| 20260903221536 | 75 | 122 | 3.0 | 6.0 | 0.01 | 0.05 | 0.05 | 88 | 1012.1 |
| 20260903221056 | 75 | 108 | 2.0 | 8.0 | 0.01 | 0.05 | 0.05 | 88 | 1012.1 |
| 20260903220517 | 75 | 100 | 5.0 | 8.0 | 0.01 | 0.05 | 0.05 | 88 | 1012.0 |
| 20260903220036 | 75 | 110 | 4.0 | 8.0 | 0.02 | 0.05 | 0.05 | 88 | 1012.1 |
| 20260903215516 | 75 | 117 | 4.0 | 7.0 | 0.02 | 0.05 | 0.05 | 88 | 1012.0 |
| 20260903215016 | 75 | 124 | 2.0 | 8.0 | 0.02 | 0.05 | 0.05 | 90 | 1012.0 |
| 20260903214516 | 75 | 136 | 4.0 | 8.0 | 0.02 | 0.05 | 0.05 | 90 | 1012.0 |
| 20260903214036 | 74 | 141 | 4.0 | 8.0 | 0.01 | 0.04 | 0.04 | 90 | 1011.8 |
| 20260903213516 | 74 | 142 | 3.0 | 7.0 | 0.01 | 0.04 | 0.04 | 91 | 1011.9 |
| 20260903213017 | 74 | 121 | 3.0 | 7.0 | 0.01 | 0.04 | 0.04 | 91 | 1012.1 |
| 20260903212516 | 74 | 143 | 2.0 | 5.0 | 0.01 | 0.04 | 0.04 | 91 | 1012.3 |
| 20260903212017 | 74 | 158 | 2.0 | 5.0 | 0.01 | 0.04 | 0.04 | 92 | 1012.2 |
| 20260903211536 | 73 | 147 | 0.0 | 4.0 | 0.01 | 0.04 | 0.04 | 92 | 1012.4 |
| 20260903211036 | 73 | 148 | 1.0 | 4.0 | 0.02 | 0.04 | 0.04 | 92 | 1012.2 |
| 20260903210516 | 73 | 137 | 1.0 | 7.0 | 0.02 | 0.04 | 0.04 | 91 | 1012.1 |
| 20260903210036 | 73 | 134 | 4.0 | 8.0 | 0.01 | 0.03 | 0.03 | 92 | 1012.0 |
| 20260903205537 | 73 | 133 | 4.0 | 8.0 | 0.01 | 0.03 | 0.03 | 91 | 1012.0 |
| 20260903205016 | 73 | 152 | 4.0 | 8.0 | 0.01 | 0.03 | 0.03 | 91 | 1012.2 |
| 20260903204517 | 73 | 159 | 4.0 | 9.0 | 0.01 | 0.03 | 0.03 | 90 | 1012.5 |
| 20260903204016 | 73 | 175 | 6.0 | 10.0 | 0.01 | 0.03 | 0.03 | 89 | 1012.9 |
| 20260903203516 | 73 | 168 | 4.0 | 10.0 | 0.01 | 0.03 | 0.03 | 88 | 1012.6 |
| 20260903203017 | 74 | 168 | 1.0 | 4.0 | 0.01 | 0.03 | 0.03 | 87 | 1012.7 |
| 20260903202516 | 74 | 227 | 2.0 | 5.0 | 0.01 | 0.03 | 0.03 | 87 | 1013.0 |
| 20260903202036 | 74 | 271 | 2.0 | 7.0 | 0.02 | 0.03 | 0.03 | 85 | 1013.2 |
| 20260903201536 | 74 | 304 | 3.0 | 7.0 | 0.02 | 0.03 | 0.03 | 85 | 1013.1 |
| 20260903201016 | 74 | 5 | 3.0 | 7.0 | 0.01 | 0.02 | 0.02 | 84 | 1012.8 |
| 20260903200536 | 74 | 10 | 4.0 | 7.0 | 0.01 | 0.02 | 0.02 | 84 | 1012.7 |
| 20260903200017 | 74 | 1 | 3.0 | 9.0 | 0.01 | 0.02 | 0.02 | 84 | 1012.5 |
| 20260903195516 | 74 | 13 | 4.0 | 9.0 | 0.01 | 0.02 | 0.02 | 85 | 1012.3 |
| 20260903195016 | 74 | 5 | 6.0 | 10.0 | 0.01 | 0.02 | 0.02 | 86 | 1012.2 |
| 20260903194516 | 74 | 359 | 6.0 | 11.0 | 0.02 | 0.02 | 0.02 | 87 | 1012.0 |
| 20260903194016 | 74 | 8 | 7.0 | 11.0 | 0.02 | 0.02 | 0.02 | 88 | 1011.9 |
| 20260903193516 | 73 | 18 | 7.0 | 10.0 | 0.02 | 0.02 | 0.02 | 88 | 1011.8 |
| 20260903193036 | 73 | 0 | 4.0 | 7.0 | 0.02 | 0.02 | 0.02 | 89 | 1012.1 |
| 20260903192516 | 73 | 23 | 2.0 | 9.0 | 0.02 | 0.02 | 0.02 | 88 | 1011.9 |
| 20260903192016 | 73 | 47 | 4.0 | 10.0 | 0.01 | 0.01 | 0.01 | 88 | 1011.7 |
| 20260903191516 | 73 | 38 | 5.0 | 10.0 | 0.01 | 0.01 | 0.01 | 88 | 1012.2 |
| 20260903191015 | 73 | 11 | 4.0 | 12.0 | 0.01 | 0.01 | 0.01 | 88 | 1012.7 |
| 20260903190516 | 73 | 11 | 7.0 | 12.0 | 0.01 | 0.01 | 0.01 | 87 | 1013.0 |
| 20260903190016 | 74 | 353 | 5.0 | 9.0 | 0.01 | 0.01 | 0.01 | 88 | 1013.1 |
| 20260903185536 | 74 | 306 | 5.0 | 9.0 | 0.01 | 0.01 | 0.01 | 88 | 1013.9 |
| 20260903185015 | 74 | 303 | 5.0 | 10.0 | 0.01 | 0.01 | 0.01 | 87 | 1014.1 |
| 20260903184516 | 74 | 318 | 5.0 | 10.0 | 0.00 | 0.00 | 0.00 | 87 | 1014.0 |
| 20260903184016 | 75 | 321 | 6.0 | 12.0 | 0.00 | 0.00 | 0.00 | 86 | 1014.0 |
| 20260903183515 | 75 | 329 | 7.0 | 12.0 | 0.00 | 0.00 | 0.00 | 85 | 1014.1 |
| 20260903183017 | 76 | 303 | 6.0 | 12.0 | 0.00 | 0.00 | 0.00 | 83 | 1014.4 |
| 20260903182517 | 76 | 304 | 8.0 | 14.0 | 0.00 | 0.00 | 0.00 | 82 | 1014.5 |
| 20260903182017 | 77 | 298 | 8.0 | 14.0 | 0.00 | 0.00 | 0.00 | 82 | 1014.5 |
| 20260903181536 | 78 | 294 | 7.0 | 13.0 | 0.00 | 0.00 | 0.00 | 82 | 1014.4 |
| 20260903181015 | 79 | 298 | 9.0 | 19.0 | 0.00 | 0.00 | 0.00 | 79 | 1014.0 |
| 20260903180515 | 79 | 301 | 10.0 | 23.0 | 0.00 | 0.00 | 0.00 | 77 | 1014.2 |
| 20260903180017 | 80 | 308 | 14.0 | 23.0 | 0.00 | 0.00 | 0.00 | 76 | 1014.2 |
| 20260903175515 | 81 | 301 | 12.0 | 22.0 | 0.00 | 0.00 | 0.00 | 74 | 1014.2 |
| 20260903175015 | 81 | 307 | 10.0 | 19.0 | 0.00 | 0.00 | 0.00 | 75 | 1013.9 |
| 20260903174517 | 82 | 307 | 7.0 | 15.0 | 0.00 | 0.00 | 0.00 | 75 | 1013.4 |
| 20260903174015 | 82 | 298 | 9.0 | 17.0 | 0.00 | 0.00 | 0.00 | 74 | 1013.3 |
| 20260903173515 | 82 | 306 | 9.0 | 17.0 | 0.00 | 0.00 | 0.00 | 74 | 1013.2 |
| 20260903173017 | 83 | 308 | 8.0 | 14.0 | 0.00 | 0.00 | 0.00 | 72 | 1013.0 |
| 20260903172557 | 83 | 302 | 6.0 | 13.0 | 0.00 | 0.00 | 0.00 | 72 | 1012.7 |
| 20260903172035 | 83 | 299 | 7.0 | 13.0 | 0.00 | 0.00 | 0.00 | 72 | 1012.6 |
| 20260903171516 | 84 | 302 | 8.0 | 12.0 | 0.00 | 0.00 | 0.00 | 71 | 1012.6 |
| 20260903171015 | 84 | 300 | 7.0 | 12.0 | 0.00 | 0.00 | 0.00 | 71 | 1012.3 |
| 20260903170536 | 84 | 284 | 6.0 | 12.0 | 0.00 | 0.00 | 0.00 | 71 | 1012.1 |
| 20260903170035 | 84 | 270 | 8.0 | 13.0 | 0.00 | 0.00 | 0.00 | 70 | 1011.9 |
| 20260903165515 | 84 | 246 | 9.0 | 13.0 | 0.00 | 0.00 | 0.00 | 70 | 1011.7 |
| 20260903165015 | 84 | 256 | 8.0 | 13.0 | 0.00 | 0.00 | 0.00 | 70 | 1011.7 |
| 20260903164536 | 84 | 265 | 8.0 | 14.0 | 0.00 | 0.00 | 0.00 | 70 | 1011.6 |
| 20260903164036 | 84 | 257 | 9.0 | 16.0 | 0.00 | 0.00 | 0.00 | 69 | 1011.6 |
| 20260903163516 | 85 | 248 | 9.0 | 16.0 | 0.00 | 0.00 | 0.00 | 68 | 1011.6 |
| 20260903163015 | 85 | 267 | 8.0 | 15.0 | 0.00 | 0.00 | 0.00 | 68 | 1011.5 |
| 20260903162515 | 85 | 300 | 8.0 | 17.0 | 0.00 | 0.00 | 0.00 | 67 | 1011.5 |
| 20260903162015 | 85 | 270 | 11.0 | 17.0 | 0.00 | 0.00 | 0.00 | 67 | 1011.4 |
| 20260903161515 | 85 | 261 | 8.0 | 16.0 | 0.00 | 0.00 | 0.00 | 68 | 1011.4 |
| 20260903161016 | 85 | 262 | 10.0 | 16.0 | 0.00 | 0.00 | 0.00 | 69 | 1011.6 |
| 20260903160515 | 85 | 251 | 9.0 | 16.0 | 0.00 | 0.00 | 0.00 | 72 | 1011.6 |
| 20260903160016 | 85 | 245 | 7.0 | 13.0 | 0.00 | 0.00 | 0.00 | 74 | 1011.7 |
| 20260903155516 | 84 | 246 | 7.0 | 12.0 | 0.00 | 0.00 | 0.00 | 74 | 1011.8 |
| 20260903155015 | 84 | 243 | 7.0 | 12.0 | 0.00 | 0.00 | 0.00 | 75 | 1011.9 |
| 20260903154515 | 84 | 250 | 6.0 | 10.0 | 0.00 | 0.00 | 0.00 | 76 | 1012.0 |
| 20260903154015 | 83 | 256 | 6.0 | 10.0 | 0.00 | 0.00 | 0.00 | 76 | 1012.0 |
| 20260903153516 | 83 | 233 | 4.0 | 11.0 | 0.00 | 0.00 | 0.00 | 77 | 1012.1 |
| 20260903153015 | 83 | 225 | 6.0 | 11.0 | 0.00 | 0.00 | 0.00 | 78 | 1012.2 |
| 20260903152515 | 83 | 214 | 6.0 | 11.0 | 0.00 | 0.00 | 0.00 | 79 | 1012.4 |
| 20260903152015 | 82 | 243 | 5.0 | 10.0 | 0.00 | 0.00 | 0.00 | 79 | 1012.4 |
| 20260903151515 | 82 | 249 | 6.0 | 10.0 | 0.00 | 0.00 | 0.00 | 79 | 1012.5 |
| 20260903151015 | 82 | 224 | 6.0 | 11.0 | 0.00 | 0.00 | 0.00 | 80 | 1012.6 |
| 20260903150515 | 82 | 228 | 6.0 | 11.0 | 0.00 | 0.00 | 0.00 | 80 | 1012.5 |
| 20260903150015 | 82 | 244 | 4.0 | 9.0 | 0.00 | 0.00 | 0.00 | 80 | 1012.4 |
| 20260903145515 | 82 | 215 | 3.0 | 7.0 | 0.00 | 0.00 | 0.00 | 81 | 1012.5 |
| 20260903145015 | 82 | 242 | 3.0 | 8.0 | 0.00 | 0.00 | 0.00 | 81 | 1012.4 |
| 20260903144515 | 82 | 247 | 4.0 | 8.0 | 0.00 | 0.00 | 0.00 | 80 | 1012.4 |
| 20260903144035 | 82 | 216 | 3.0 | 8.0 | 0.00 | 0.00 | 0.00 | 80 | 1012.3 |
| 20260903143515 | 82 | 216 | 4.0 | 8.0 | 0.00 | 0.00 | 0.00 | 81 | 1012.2 |
| 20260903143015 | 82 | 224 | 3.0 | 10.0 | 0.00 | 0.00 | 0.00 | 81 | 1012.2 |
| 20260903142515 | 81 | 234 | 5.0 | 10.0 | 0.00 | 0.00 | 0.00 | 82 | 1012.2 |
| 20260903142016 | 81 | 227 | 6.0 | 9.0 | 0.00 | 0.00 | 0.00 | 80 | 1012.1 |
| 20260903141516 | 81 | 218 | 4.0 | 8.0 | 0.00 | 0.00 | 0.00 | 81 | 1012.0 |
| 20260903141035 | 81 | 211 | 3.0 | 6.0 | 0.00 | 0.00 | 0.00 | 83 | 1011.9 |
| 20260903140515 | 80 | 217 | 4.0 | 6.0 | 0.00 | 0.00 | 0.00 | 83 | 1012.0 |
| 20260903140016 | 80 | 197 | 3.0 | 6.0 | 0.00 | 0.00 | 0.00 | 84 | 1012.1 |
| 20260903135515 | 80 | 198 | 3.0 | 6.0 | 0.00 | 0.00 | 0.00 | 85 | 1012.1 |
| 20260903135016 | 79 | 212 | 3.0 | 6.0 | 0.00 | 0.00 | 0.00 | 86 | 1012.2 |
| 20260903134515 | 79 | 183 | 1.0 | 4.0 | 0.00 | 0.00 | 0.00 | 87 | 1012.1 |
| 20260903134016 | 78 | 135 | 1.0 | 3.0 | 0.00 | 0.00 | 0.00 | 89 | 1012.1 |
| 20260903133515 | 77 | 141 | 0.0 | 2.0 | 0.00 | 0.00 | 0.00 | 90 | 1012.2 |
| 20260903133015 | 77 | 136 | 0.0 | 2.0 | 0.00 | 0.00 | 0.00 | 92 | 1012.2 |
| 20260903132515 | 76 | 146 | 0.0 | 5.0 | 0.00 | 0.00 | 0.00 | 93 | 1012.1 |
| 20260903132015 | 75 | 190 | 0.0 | 7.0 | 0.00 | 0.00 | 0.00 | 93 | 1012.1 |
| 20260903131515 | 75 | 183 | 2.0 | 7.0 | 0.00 | 0.00 | 0.00 | 94 | 1012.1 |
| 20260903131015 | 74 | 208 | 1.0 | 7.0 | 0.00 | 0.00 | 0.00 | 95 | 1012.2 |
| 20260903130515 | 74 | 243 | 2.0 | 7.0 | 0.00 | 0.00 | 0.00 | 95 | 1012.1 |
| 20260903130015 | 74 | 245 | 1.0 | 5.0 | 0.00 | 0.00 | 0.00 | 95 | 1012.1 |
| 20260903125515 | 74 | 264 | 0.0 | 2.0 | 0.00 | 0.00 | 0.00 | 95 | 1012.2 |
| 20260903125016 | 73 | 279 | 0.0 | 2.0 | 0.00 | 0.00 | 0.00 | 96 | 1012.2 |
| 20260903124515 | 73 | 284 | 0.0 | 2.0 | 0.00 | 0.00 | 0.00 | 95 | 1012.1 |
| 20260903124016 | 73 | 278 | 0.0 | 3.0 | 0.00 | 0.00 | 0.00 | 95 | 1012.1 |
| 20260903123517 | 73 | 282 | 1.0 | 3.0 | 0.00 | 0.00 | 0.00 | 95 | 1012.2 |
| 20260903123017 | 73 | 0.0 | 3.0 | 0.00 | 0.00 | 0.00 | 96 | 1012.2 | |
| 20260903122518 | 73 | 212 | 0.0 | 3.0 | 0.00 | 0.00 | 0.00 | 96 | 1012.2 |
| 20260903122017 | 73 | 198 | 0.0 | 3.0 | 0.00 | 0.00 | 0.00 | 96 | 1012.3 |
| 20260903121517 | 73 | 185 | 0.0 | 3.0 | 0.00 | 0.00 | 0.00 | 96 | 1012.4 |
| 20260903121017 | 72 | 167 | 0.0 | 3.0 | 0.00 | 0.00 | 0.00 | 96 | 1012.6 |
| 20260903120517 | 72 | 123 | 0.0 | 2.0 | 0.00 | 0.00 | 0.00 | 95 | 1012.6 |
| 20260903120017 | 72 | 139 | 0.0 | 2.0 | 0.00 | 0.00 | 0.00 | 96 | 1012.7 |
| 20260903115537 | 72 | 92 | 0.0 | 3.0 | 0.00 | 0.00 | 0.00 | 96 | 1012.6 |
| 20260903115017 | 72 | 79 | 1.0 | 3.0 | 0.00 | 0.00 | 0.00 | 96 | 1012.5 |
| 20260903114518 | 71 | 102 | 0.0 | 2.0 | 0.00 | 0.01 | 0.00 | 95 | 1012.6 |
| 20260903114018 | 71 | 91 | 0.0 | 2.0 | 0.00 | 0.01 | 0.00 | 95 | 1012.6 |
| 20260903113517 | 71 | 91 | 0.0 | 3.0 | 0.00 | 0.01 | 0.00 | 95 | 1012.5 |
| 20260903113017 | 71 | 96 | 1.0 | 3.0 | 0.00 | 0.01 | 0.00 | 95 | 1012.4 |
| 20260903112517 | 71 | 110 | 1.0 | 3.0 | 0.00 | 0.01 | 0.00 | 95 | 1012.4 |
| 20260903112017 | 71 | 127 | 0.0 | 2.0 | 0.00 | 0.01 | 0.00 | 95 | 1012.4 |
| 20260903111517 | 72 | 0.0 | 1.0 | 0.00 | 0.01 | 0.00 | 95 | 1012.2 | |
| 20260903111017 | 72 | 127 | 0.0 | 2.0 | 0.00 | 0.01 | 0.00 | 95 | 1012.1 |
| 20260903110517 | 72 | 127 | 1.0 | 3.0 | 0.00 | 0.01 | 0.00 | 95 | 1012.2 |
| 20260903110018 | 71 | 130 | 1.0 | 4.0 | 0.00 | 0.01 | 0.00 | 95 | 1012.2 |
| 20260903105537 | 71 | 125 | 1.0 | 4.0 | 0.00 | 0.01 | 0.00 | 95 | 1012.2 |
| 20260903105017 | 71 | 110 | 0.0 | 1.0 | 0.00 | 0.01 | 0.00 | 95 | 1012.2 |
| 20260903104517 | 71 | 0.0 | 0.0 | 0.00 | 0.01 | 0.00 | 95 | 1012.1 | |
| 20260903104100 | 71 | 0.0 | 0.0 | 0.00 | 0.01 | 0.00 | 95 | 1012.2 | |
| 20260903103517 | 71 | 0.0 | 0.0 | 0.00 | 0.01 | 0.00 | 95 | 1012.3 | |
| 20260903103017 | 71 | 0.0 | 0.0 | 0.00 | 0.01 | 0.00 | 95 | 1012.3 | |
| 20260903102518 | 71 | 0.0 | 0.0 | 0.00 | 0.01 | 0.00 | 95 | 1012.3 | |
| 20260903102018 | 71 | 0.0 | 0.0 | 0.00 | 0.01 | 0.00 | 95 | 1012.3 | |
| 20260903101538 | 71 | 0.0 | 0.0 | 0.00 | 0.01 | 0.00 | 95 | 1012.3 | |
| 20260903101017 | 71 | 0.0 | 0.0 | 0.00 | 0.01 | 0.00 | 95 | 1012.2 | |
| 20260903100517 | 71 | 0.0 | 0.0 | 0.00 | 0.01 | 0.00 | 95 | 1012.2 | |
| 20260903100016 | 71 | 0.0 | 0.0 | 0.00 | 0.01 | 0.00 | 95 | 1012.3 | |
| 20260903095517 | 71 | 0.0 | 0.0 | 0.00 | 0.01 | 0.00 | 95 | 1012.2 | |
| 20260903095017 | 71 | 0.0 | 0.0 | 0.00 | 0.01 | 0.00 | 94 | 1012.2 | |
| 20260903094516 | 71 | 0.0 | 0.0 | 0.00 | 0.01 | 0.00 | 94 | 1012.1 | |
| 20260903094016 | 71 | 0.0 | 0.0 | 0.00 | 0.01 | 0.00 | 94 | 1012.1 | |
| 20260903093517 | 71 | 0.0 | 1.0 | 0.00 | 0.01 | 0.00 | 95 | 1012.1 | |
| 20260903093017 | 71 | 100 | 0.0 | 1.0 | 0.00 | 0.01 | 0.00 | 95 | 1012.1 |
| 20260903092517 | 71 | 100 | 0.0 | 1.0 | 0.00 | 0.01 | 0.00 | 95 | 1012.0 |
| 20260903092018 | 71 | 100 | 0.0 | 1.0 | 0.00 | 0.01 | 0.00 | 95 | 1012.0 |
| 20260903091517 | 71 | 100 | 0.0 | 1.0 | 0.00 | 0.01 | 0.00 | 95 | 1012.1 |
| 20260903091018 | 71 | 100 | 0.0 | 2.0 | 0.00 | 0.01 | 0.00 | 94 | 1012.0 |
| 20260903090516 | 71 | 100 | 1.0 | 2.0 | 0.00 | 0.01 | 0.00 | 94 | 1012.1 |
| 20260903090017 | 71 | 100 | 0.0 | 3.0 | 0.00 | 0.01 | 0.00 | 94 | 1012.1 |
| 20260903085518 | 71 | 104 | 0.0 | 3.0 | 0.00 | 0.01 | 0.00 | 94 | 1012.1 |
| 20260903085017 | 71 | 121 | 0.0 | 2.0 | 0.00 | 0.01 | 0.00 | 94 | 1012.1 |
| 20260903084516 | 71 | 122 | 0.0 | 2.0 | 0.00 | 0.01 | 0.00 | 94 | 1012.0 |
| 20260903084016 | 71 | 122 | 0.0 | 2.0 | 0.00 | 0.01 | 0.00 | 94 | 1012.1 |
| 20260903083517 | 72 | 0.0 | 0.0 | 0.00 | 0.01 | 0.00 | 94 | 1012.0 | |
| 20260903083038 | 72 | 0.0 | 0.0 | 0.00 | 0.01 | 0.00 | 94 | 1012.1 | |
| 20260903082516 | 72 | 0.0 | 0.0 | 0.00 | 0.01 | 0.00 | 94 | 1012.2 | |
| 20260903082016 | 72 | 0.0 | 1.0 | 0.00 | 0.01 | 0.00 | 94 | 1012.1 | |
| 20260903081516 | 72 | 122 | 0.0 | 2.0 | 0.00 | 0.01 | 0.00 | 94 | 1012.1 |
| 20260903081016 | 72 | 121 | 1.0 | 2.0 | 0.00 | 0.01 | 0.00 | 94 | 1012.0 |
| 20260903080518 | 72 | 121 | 1.0 | 2.0 | 0.00 | 0.01 | 0.00 | 94 | 1012.1 |
| 20260903080036 | 72 | 122 | 1.0 | 2.0 | 0.00 | 0.01 | 0.00 | 94 | 1012.1 |
| 20260903075537 | 72 | 121 | 1.0 | 2.0 | 0.00 | 0.01 | 0.00 | 94 | 1012.1 |
| 20260903075016 | 72 | 122 | 0.0 | 1.0 | 0.00 | 0.01 | 0.00 | 93 | 1012.1 |
| 20260903074516 | 72 | 0.0 | 0.0 | 0.00 | 0.01 | 0.00 | 93 | 1012.0 | |
| 20260903074017 | 72 | 0.0 | 1.0 | 0.00 | 0.01 | 0.00 | 93 | 1012.0 | |
| 20260903073537 | 72 | 122 | 0.0 | 2.0 | 0.00 | 0.01 | 0.00 | 93 | 1012.0 |
| 20260903073018 | 72 | 121 | 1.0 | 2.0 | 0.00 | 0.01 | 0.00 | 93 | 1012.0 |
| 20260903072516 | 72 | 121 | 1.0 | 2.0 | 0.00 | 0.01 | 0.00 | 93 | 1012.0 |
| 20260903072016 | 73 | 122 | 0.0 | 1.0 | 0.00 | 0.01 | 0.00 | 93 | 1012.0 |
| 20260903071516 | 73 | 0.0 | 1.0 | 0.00 | 0.01 | 0.00 | 93 | 1011.9 | |
| 20260903071036 | 73 | 122 | 0.0 | 1.0 | 0.00 | 0.01 | 0.00 | 93 | 1011.9 |
| 20260903070517 | 73 | 121 | 0.0 | 2.0 | 0.00 | 0.01 | 0.00 | 93 | 1011.9 |
| 20260903070017 | 73 | 121 | 1.0 | 3.0 | 0.00 | 0.01 | 0.00 | 93 | 1012.0 |
| 20260903065516 | 73 | 122 | 1.0 | 3.0 | 0.00 | 0.01 | 0.00 | 93 | 1011.9 |
| 20260903065036 | 73 | 148 | 1.0 | 2.0 | 0.00 | 0.01 | 0.00 | 93 | 1012.0 |
| 20260903064516 | 73 | 0.0 | 0.0 | 0.00 | 0.01 | 0.00 | 93 | 1012.0 | |
| 20260903064016 | 73 | 0.0 | 2.0 | 0.00 | 0.01 | 0.00 | 93 | 1012.0 | |
| 20260903063536 | 73 | 148 | 0.0 | 2.0 | 0.00 | 0.01 | 0.00 | 92 | 1011.9 |
| 20260903063016 | 73 | 148 | 0.0 | 2.0 | 0.00 | 0.01 | 0.00 | 92 | 1011.9 |
| 20260903062538 | 74 | 148 | 1.0 | 2.0 | 0.00 | 0.01 | 0.00 | 92 | 1011.9 |
| 20260903062016 | 74 | 148 | 1.0 | 2.0 | 0.00 | 0.01 | 0.00 | 92 | 1011.9 |
| 20260903061558 | 74 | 148 | 1.0 | 2.0 | 0.00 | 0.01 | 0.00 | 92 | 1011.8 |
| 20260903061016 | 74 | 157 | 0.0 | 2.0 | 0.00 | 0.01 | 0.00 | 92 | 1011.8 |
| 20260903060617 | 74 | 0.0 | 0.0 | 0.00 | 0.01 | 0.00 | 92 | 1011.8 | |
| 20260903060016 | 74 | 0.0 | 0.0 | 0.00 | 0.01 | 0.00 | 92 | 1011.8 | |
| 20260903055516 | 74 | 0.0 | 0.0 | 0.00 | 0.01 | 0.00 | 92 | 1011.9 | |
| 20260903055016 | 74 | 0.0 | 0.0 | 0.00 | 0.01 | 0.00 | 92 | 1011.8 | |
| 20260903054516 | 74 | 0.0 | 0.0 | 0.00 | 0.01 | 0.00 | 92 | 1011.8 | |
| 20260903054016 | 74 | 0.0 | 0.0 | 0.00 | 0.01 | 0.00 | 92 | 1011.7 | |
| 20260903053516 | 74 | 0.0 | 0.0 | 0.00 | 0.01 | 0.00 | 91 | 1011.7 | |
| 20260903053017 | 74 | 0.0 | 0.0 | 0.00 | 0.01 | 0.00 | 91 | 1011.8 | |
| 20260903052516 | 74 | 0.0 | 2.0 | 0.00 | 0.01 | 0.00 | 92 | 1011.7 | |
| 20260903052016 | 74 | 241 | 0.0 | 2.0 | 0.00 | 0.01 | 0.00 | 92 | 1011.7 |
| 20260903051517 | 74 | 241 | 0.0 | 2.0 | 0.00 | 0.01 | 0.00 | 92 | 1011.6 |
| 20260903051016 | 74 | 239 | 0.0 | 2.0 | 0.00 | 0.01 | 0.00 | 92 | 1011.7 |
| 20260903050516 | 75 | 0.0 | 0.0 | 0.00 | 0.01 | 0.00 | 92 | 1011.7 | |
| 20260903050017 | 75 | 0.0 | 1.0 | 0.00 | 0.01 | 0.00 | 92 | 1011.6 | |
| 20260903045516 | 75 | 97 | 0.0 | 2.0 | 0.00 | 0.01 | 0.00 | 92 | 1011.7 |
| 20260903045016 | 75 | 98 | 0.0 | 2.0 | 0.00 | 0.01 | 0.00 | 92 | 1011.7 |
| 20260903044516 | 75 | 0.0 | 0.0 | 0.00 | 0.01 | 0.00 | 91 | 1011.5 | |
| 20260903044016 | 75 | 0.0 | 0.0 | 0.00 | 0.01 | 0.00 | 92 | 1011.5 | |
| 20260903043517 | 75 | 0.0 | 0.0 | 0.00 | 0.01 | 0.00 | 92 | 1011.4 | |
| 20260903043016 | 75 | 0.0 | 0.0 | 0.00 | 0.01 | 0.00 | 92 | 1011.4 | |
| 20260903042516 | 75 | 0.0 | 0.0 | 0.00 | 0.01 | 0.00 | 92 | 1011.4 | |
| 20260903042016 | 75 | 0.0 | 0.0 | 0.00 | 0.01 | 0.00 | 92 | 1011.4 | |
| 20260903041516 | 75 | 0.0 | 0.0 | 0.00 | 0.01 | 0.00 | 92 | 1011.4 | |
| 20260903041016 | 75 | 0.0 | 1.0 | 0.00 | 0.01 | 0.00 | 92 | 1011.4 | |
| 20260903040516 | 75 | 98 | 0.0 | 2.0 | 0.00 | 0.01 | 0.00 | 91 | 1011.4 |
| 20260903040016 | 75 | 98 | 0.0 | 2.0 | 0.00 | 0.01 | 0.01 | 91 | 1011.3 |
| 20260903035517 | 75 | 98 | 0.0 | 1.0 | 0.00 | 0.02 | 0.01 | 91 | 1011.3 |
| 20260903035017 | 76 | 98 | 0.0 | 1.0 | 0.00 | 0.02 | 0.01 | 91 | 1011.3 |
| 20260903034518 | 76 | 0.0 | 0.0 | 0.00 | 0.02 | 0.01 | 91 | 1011.3 | |
| 20260903034016 | 76 | 0.0 | 2.0 | 0.00 | 0.02 | 0.01 | 90 | 1011.3 | |
| 20260903033516 | 76 | 98 | 0.0 | 2.0 | 0.00 | 0.02 | 0.01 | 90 | 1011.1 |
| 20260903033016 | 76 | 0.0 | 1.0 | 0.00 | 0.02 | 0.01 | 90 | 1011.2 | |
| 20260903032517 | 76 | 98 | 0.0 | 2.0 | 0.00 | 0.02 | 0.01 | 90 | 1011.3 |
| 20260903032016 | 76 | 98 | 0.0 | 2.0 | 0.00 | 0.02 | 0.01 | 90 | 1011.2 |
| 20260903031516 | 76 | 0.0 | 2.0 | 0.00 | 0.02 | 0.01 | 89 | 1011.4 | |
| 20260903031016 | 76 | 97 | 0.0 | 2.0 | 0.00 | 0.02 | 0.01 | 89 | 1011.4 |
| 20260903030518 | 77 | 98 | 1.0 | 2.0 | 0.00 | 0.02 | 0.01 | 89 | 1011.3 |
| 20260903030016 | 77 | 98 | 0.0 | 2.0 | 0.00 | 0.02 | 0.01 | 88 | 1011.3 |
| 20260903025516 | 77 | 104 | 0.0 | 2.0 | 0.00 | 0.02 | 0.01 | 88 | 1011.4 |
| 20260903025016 | 77 | 138 | 0.0 | 2.0 | 0.00 | 0.02 | 0.01 | 87 | 1011.5 |
| 20260903024536 | 78 | 143 | 0.0 | 2.0 | 0.00 | 0.02 | 0.01 | 87 | 1011.4 |
| 20260903024017 | 78 | 292 | 1.0 | 2.0 | 0.00 | 0.02 | 0.01 | 87 | 1011.5 |
| 20260903023517 | 78 | 292 | 1.0 | 2.0 | 0.00 | 0.02 | 0.01 | 85 | 1011.4 |
| 20260903023016 | 78 | 292 | 0.0 | 2.0 | 0.00 | 0.02 | 0.01 | 84 | 1011.4 |
| 20260903022516 | 78 | 0.0 | 0.0 | 0.00 | 0.02 | 0.01 | 84 | 1011.4 | |
| 20260903022036 | 79 | 0.0 | 1.0 | 0.00 | 0.02 | 0.01 | 84 | 1011.5 | |
| 20260903021517 | 79 | 292 | 0.0 | 2.0 | 0.00 | 0.02 | 0.01 | 84 | 1011.5 |
| 20260903021016 | 79 | 292 | 0.0 | 2.0 | 0.00 | 0.02 | 0.01 | 84 | 1011.5 |
| 20260903020516 | 79 | 0.0 | 0.0 | 0.00 | 0.02 | 0.01 | 84 | 1011.3 | |
| 20260903020018 | 79 | 0.0 | 1.0 | 0.00 | 0.02 | 0.01 | 83 | 1011.4 | |
| 20260903015516 | 79 | 323 | 0.0 | 2.0 | 0.00 | 0.02 | 0.01 | 83 | 1011.3 |
| 20260903015016 | 80 | 323 | 0.0 | 2.0 | 0.00 | 0.02 | 0.01 | 83 | 1011.3 |
| 20260903014516 | 80 | 322 | 1.0 | 2.0 | 0.00 | 0.02 | 0.01 | 83 | 1011.3 |
| 20260903014017 | 80 | 310 | 0.0 | 2.0 | 0.00 | 0.02 | 0.01 | 83 | 1011.3 |
| 20260903013516 | 80 | 311 | 0.0 | 3.0 | 0.00 | 0.02 | 0.01 | 83 | 1011.3 |
| 20260903013057 | 80 | 325 | 1.0 | 3.0 | 0.00 | 0.02 | 0.01 | 84 | 1011.1 |
| 20260903012517 | 79 | 299 | 1.0 | 4.0 | 0.00 | 0.02 | 0.01 | 84 | 1011.1 |
| 20260903012016 | 79 | 267 | 0.0 | 4.0 | 0.00 | 0.02 | 0.01 | 84 | 1011.0 |
| 20260903011516 | 80 | 0.0 | 0.0 | 0.00 | 0.02 | 0.01 | 84 | 1010.9 |